Regional Weather Roundup
Issued by NWS

Home | Current Version | Previous Version | Text Only | Print | Product List | Glossary Off
Versions: 1 2 3 4 5 6 7 8 9 10 11 12 13 14 15 16 17 18 19 20 21 22 23 24 25 26 27 28 29 30 31 32 33 34 35 36 37 38 39 40 41 42 43 44 45 46 47 48 49 50

000
ASUS43 KIND 270909
RWRIN

WEATHER ROUNDUP FOR INDIANA
NATIONAL WEATHER SERVICE INDIANAPOLIS IN
500 AM EDT MON MAR 27 2017

NOTE: "FAIR" INDICATES FEW OR NO CLOUDS BELOW 12,000 FEET WITH NO
SIGNIFICANT WEATHER AND/OR OBSTRUCTIONS TO VISIBILITY.

* - STATION DOES NOT REPORT WEATHER SUCH AS PRECIPITATION OR FOG.

+ - STATION NOT QUALITY CONTROLLED BY THE NATIONAL WEATHER SERVICE.
    USE DATA WITH CAUTION...ESPECIALLY DEWPOINT AND RELATIVE
    HUMIDITY OBSERVATIONS.

INZ001>003-010>013-019-020-271000-
NORTHWEST INDIANA

CITY           SKY/WX    TMP DP  RH WIND       PRES   REMARKS
GARY /AIRPORT/ CLOUDY    52  49  89 W7        29.91S
KNOX *+        CLOUDY    48  43  81 W12       29.91F
LA PORTE +     CLOUDY    49  48  97 W7        29.91S FOG
MICHIGAN CITY+ CLOUDY    50  50 100 SW6       29.91S FOG
MONTICELLO +   MOCLDY    49  46  91 W6        29.93R
RENSSELAER +   CLOUDY    50  48  93 W7        29.93S FOG
VALPARAISO     CLOUDY    50  50 100 W9        29.91S FOG

$$

LMZ046-743>745-271000-
SOUTHERN LAKE MICHIGAN

STATION/POSITION TIME  TEMP    WIND        PRES    WAVE
                       AIR SEA DIR/SP/G            HT
                 (UTC) (F)     (DEG/KT/KT) (MB)    (FT)
BURNS HARBOR     0840   50     230/ 11/ 12 1013.2S
MICHIGAN CITY    0840   47     220/ 13/ 14   N/A

$$

INZ004-005-014>016-021>024-271000-
NORTH CENTRAL INDIANA

CITY           SKY/WX    TMP DP  RH WIND       PRES   REMARKS
GOSHEN         CLOUDY    50  47  89 W10       29.89S
LOGANSPORT +   CLOUDY    50  46  87 W10       29.94S
PERU/GRISSOM   CLOUDY    50  50 100 W13       29.92R
ROCHESTER +    CLOUDY    52  50  93 W6        29.92S FOG
SOUTH BEND     CLOUDY    49  49 100 SW10      29.90F
WARSAW +       LGT RAIN  50  46  87 W7        29.91S

$$

INZ006>009-017-018-025>027-271000-
NORTHEAST INDIANA

CITY           SKY/WX    TMP DP  RH WIND       PRES   REMARKS
ANGOLA *+        N/A     50  43  76 W9        29.89R
AUBURN +       CLOUDY    52  48  87 SW8       29.91S FOG
FORT WAYNE     DRIZZLE   51  49  92 W14       29.92R FOG
HUNTINGTON +   CLOUDY    51  49  95 W5        29.92S FOG
KENDALLVILLE + CLOUDY    50  49  95 W12       29.90S

$$

INZ028-029-035-036-043>045-051>053-271000-
WEST CENTRAL INDIANA

CITY           SKY/WX    TMP DP  RH WIND       PRES   REMARKS
CRAWFORDSVL +  CLOUDY    50  50 100 SW6       29.95S
GREENCASTLE +  CLOUDY    50  46  87 CALM      29.95F
LAFAYETTE      CLOUDY    50  49  96 W7        29.94S
TERRE HAUTE    PTCLDY    47  45  93 NE5       29.94F

$$

INZ030>032-037>040-046>048-054>057-064-065-271000-
CENTRAL INDIANA

CITY           SKY/WX    TMP DP  RH WIND       PRES   REMARKS
CP ATTERBURY + FOG       45  43  93 CALM      29.97R VSB 1/2
FRANKFORT +    CLOUDY    53  51  93 W7        29.96S
GREENWOOD *+   MOCLDY    48  47  97 CALM      29.96S
INDIANAPOLIS   MOCLDY    50  47  89 W7        29.95S
-EAGLE CREEK   CLOUDY    52  48  86 SW3       29.94S
KOKOMO +       CLOUDY    51  49  92 W10       29.94R
MARION +       CLOUDY    50  50  98 W9        29.94S
MT COMFORT *+  CLOUDY    50  48  93 SW5       29.96S
SHELBYVILLE    CLOUDY    49  45  86 S5        29.96R
ZIONSVILLE +   CLOUDY    51  48  90 SW7       29.95S

$$

INZ033-034-041-042-049-050-058-059-271000-
EAST CENTRAL INDIANA

CITY           SKY/WX    TMP DP  RH WIND       PRES   REMARKS
MUNCIE         CLOUDY    54  48  80 SW7       29.93F
RICHMOND +     CLOUDY    48  46  93 SW7       29.96S

$$

INZ060-061-067>069-081>083-085>088-271000-
SOUTHWEST INDIANA

CITY           SKY/WX    TMP DP  RH WIND       PRES   REMARKS
EVANSVILLE     CLOUDY    48  46  93 N5        29.94F
HUNTINGBURG *+ CLOUDY    46  45  96 CALM      29.95F
WASHINGTON +   CLEAR     45  43  94 MISG      29.94F

$$

INZ062-063-066-070>080-084-089>092-271000-
SOUTH CENTRAL AND SOUTHEAST INDIANA

CITY           SKY/WX    TMP DP  RH WIND       PRES   REMARKS
BEDFORD +      CLEAR     46  45  93 CALM      29.95F
BLOOMINGTON    CLEAR     43  42  97 CALM      29.95F FOG
MADISON *+     PTCLDY    45  45 100 CALM      29.99R
NORTH VERNON + PTCLDY   N/A N/A N/A CALM      29.97S HAZE
SEYMOUR +      CLOUDY    46  45  93 CALM      29.96F FOG

$$





USA.gov is the U.S. government's official web portal to all federal, state and local government web resources and services.